[[{"header":{"parameterUnit":"m.s-1","parameterCategory":1,"la1":30.2991,"la2":30.254,"lo1":-89.0895,"lo2":-89.0444,"dy":0.0017,"dx":0.0017,"nx":28,"ny":28,"refTime":"2025-03-14T21:00:00:Z","depth":0,"parameterNumber":2,"parameterNumberName":"U-component_of_WINDS"},"data":[0,0,0,0,0,0,0,0,0,0,0,0,0,0,0,0,0,0,0,0,0,0,0,0,0,0,0,0,0,0,0,0,0,0,0,0,0,0,0,0,0,0,0,0,0,0,0,0,0,0,0,0,0,0,0,0,0,0,-4.4469,-4.4471,0,-4.468,-4.4682,-4.4685,-4.4763,-4.4762,-4.4761,-4.4761,-4.4977,-4.4983,-4.4989,0,0,0,0,0,0,0,0,0,0,0,0,0,-4.4134,-4.414,-4.4469,-4.4472,-4.4474,-4.4679,-4.4682,-4.4685,-4.4763,-4.4762,-4.4761,-4.476,-4.4975,-4.4982,-4.499,0,0,0,0,0,0,0,0,0,0,0,0,0,-4.4306,-4.4142,-4.4468,-4.4538,-4.4546,-4.4679,-4.4682,-4.4686,-4.4763,-4.4762,-4.4761,-4.476,-4.4972,-4.4982,-4.4991,-4.5071,0,0,-4.502,-4.5025,0,0,0,0,0,0,0,0,-4.4296,-4.4318,-4.4525,-4.4533,-4.4543,-4.4694,-4.4644,-4.4815,-4.4763,-4.4681,-4.4761,-4.4759,-4.4884,-4.49,-4.4942,-4.5081,-4.509,-4.5021,-4.5027,-4.5031,-4.5034,0,0,0,0,0,0,0,-4.4284,-4.4309,-4.4552,-4.4528,-4.4539,-4.4558,-4.4582,-4.4677,-4.4785,-4.4688,-4.4694,-4.4718,-4.4888,-4.4933,-4.4948,-4.5094,-4.5021,-4.5029,-4.5035,-4.5039,-4.5308,-4.531,0,0,0,0,0,0,-4.426,-4.4299,-4.4546,-4.4559,-4.4414,-4.4565,-4.4591,-4.4646,-4.4784,-4.4805,-4.4718,-4.4721,-4.4917,-4.4937,-4.4956,-4.5058,-4.5031,-4.504,-4.5046,-4.5307,-4.5309,-4.531,0,0,0,0,0,0,-4.4253,-4.4282,-4.4537,-4.4431,-4.4465,-4.4572,-4.4633,-4.4651,-4.4696,-4.4808,-4.4827,-4.4744,-4.4917,-4.4942,-4.5042,-4.5067,-4.5044,-4.5053,-4.5305,-4.5308,-4.5309,-4.5263,0,0,0,0,0,0,-4.4243,-4.4279,-4.431,-4.4431,-4.447,-4.4619,-4.4635,-4.4656,-4.4712,-4.4717,-4.4837,-4.4856,-4.4918,-4.5027,-4.5051,-4.5079,-4.5061,-4.5304,-4.5306,-4.5309,-4.5263,-4.5263,-4.5263,0,0,0,0,0,-4.4231,-4.4288,-4.4311,-4.434,-4.4511,-4.462,-4.4643,-4.4713,-4.4714,-4.4746,-4.4818,-4.4852,-4.506,-4.5036,-4.5064,-4.5096,-4.5302,-4.5306,-4.5309,-4.5262,-4.5263,-4.5263,0,0,0,0,0,0,-4.4168,-4.4305,-4.4332,-4.443,-4.4513,-4.4633,-4.4676,-4.4712,-4.4796,-4.4797,-4.4881,-4.4908,-4.5,-4.5059,-4.503,-4.518,-4.5183,-4.5192,-4.5139,-4.514,-4.5141,-4.5124,-4.5069,0,0,0,0,0,-4.4165,-4.4242,-4.4359,-4.4434,-4.4474,-4.4568,-4.4618,-4.4665,-4.4754,-4.479,-4.4869,-4.4954,-4.5039,-4.5093,-4.5177,-4.5272,-4.5299,-4.5307,-4.5308,-4.5307,-4.5314,-4.5368,-4.5373,-4.5321,-4.5321,-4.532,0,0,-4.4161,-4.4246,-4.4289,-4.4424,-4.4493,-4.4571,-4.4597,-4.4678,-4.4737,-4.4802,-4.4901,-4.4962,-4.5063,-4.516,-4.5206,-4.5211,-4.5334,-4.5311,-4.531,-4.5317,-4.5371,-4.5376,-4.538,-4.5323,-4.5322,-4.5322,0,0,-4.4193,-4.4265,-4.4335,-4.4404,-4.4509,-4.4571,-4.4588,-4.4704,-4.4747,-4.4847,-4.4897,-4.4969,-4.5113,-4.5183,-4.5237,-4.5295,-4.5329,-4.532,-4.5322,-4.5373,-4.5378,-4.5382,-4.5402,-4.5408,-4.5326,-4.5326,-4.5326,0,-4.4174,-4.4293,-4.4367,-4.4446,-4.4503,-4.4566,-4.4638,-4.4702,-4.4829,-4.4867,-4.4871,-4.5053,-4.5126,-4.5239,-4.5254,-4.5296,-4.5318,-4.5306,-4.5371,-4.5376,-4.5381,-4.5401,-4.5408,-4.5324,-4.5325,-4.5325,-4.5325,0,-4.4264,-4.4346,-4.4391,-4.4511,-4.4574,-4.4649,-4.4735,-4.4789,-4.4831,-4.4893,-4.4994,-4.5083,-4.5186,-4.5217,-4.5259,-4.5337,-4.5337,-4.5354,-4.5359,-4.5382,-4.5403,-4.5411,-4.5322,-4.5322,-4.5323,-4.5323,0,0,-4.4261,-4.4422,-4.4437,-4.4492,-4.4613,-4.4678,-4.4756,-4.4856,-4.4901,-4.4987,-4.5054,-4.5175,-4.5193,-4.5254,-4.5304,-4.535,-4.5389,-4.5362,-4.5366,-4.5363,-4.548,-4.5465,-4.5473,-4.5413,-4.5415,-4.5417,-4.5472,0,-4.4308,-4.4449,-4.4518,-4.463,-4.4706,-4.4767,-4.4835,-4.4916,-4.4976,-4.505,-4.5117,-4.52,-4.5217,-4.5255,-4.5302,-4.5374,-4.5414,-4.5371,-4.5476,-4.5479,-4.5448,-4.5484,-4.5469,-4.5516,-4.548,-4.5482,-4.5483,0,-4.4381,-4.4466,-4.4584,-4.4696,-4.473,-4.479,-4.4888,-4.4958,-4.5051,-4.5092,-4.516,-4.5209,-4.5294,-4.5293,-4.5411,-4.538,-4.5428,-4.5469,-4.5473,-4.5485,-4.5481,-4.5495,-4.5533,-4.554,-4.5496,-4.5495,-4.5494,0,-4.4366,-4.451,-4.4599,-4.4645,-4.4777,-4.4817,-4.4875,-4.4967,-4.5023,-4.5109,-4.5146,-4.5241,-4.5292,-4.5365,-4.5438,-4.5431,-4.5548,-4.5554,-4.5584,-4.5582,-4.5605,-4.5602,-4.565,-4.5637,-4.5637,-4.5637,-4.5636,0,-4.441,-4.448,-4.4594,-4.4648,-4.4729,-4.4808,-4.4885,-4.4947,-4.5029,-4.5097,-4.5157,-4.522,-4.5313,-4.5388,-4.5446,-4.5534,-4.5557,-4.5592,-4.5607,-4.5586,-4.5582,-4.5618,-4.5616,-4.5639,-4.5638,-4.5638,-4.5637,0,-4.4406,-4.4485,-4.4586,-4.4703,-4.4734,-4.4788,-4.4889,-4.4944,-4.5007,-4.5093,-4.5118,-4.5216,-4.5307,-4.5388,-4.5509,-4.5548,-4.5638,-4.5656,-4.5605,-4.5613,-4.5638,-4.5634,-4.571,-4.5723,-4.5701,-4.5701,-4.5702,0,-4.4428,-4.4483,-4.4606,-4.4656,-4.4711,-4.4791,-4.4848,-4.4929,-4.4986,-4.5097,-4.5139,-4.5235,-4.5315,-4.5457,-4.554,-4.5633,-4.5653,-4.5673,-4.5668,-4.5645,-4.5653,-4.5648,-4.5654,-4.5672,-4.5672,-4.5672,-4.5672,0,-4.4459,-4.4496,-4.4576,-4.467,-4.4736,-4.4814,-4.4894,-4.4932,-4.5027,-4.5089,-4.5182,-4.5244,-4.5368,-4.5461,-4.5563,-4.5623,-4.5663,-4.5673,-4.5685,-4.5664,-4.5632,-4.5649,-4.5603,-4.5671,-4.5671,-4.5671,-4.5671,-4.5671,-4.4469,-4.4521,-4.4615,-4.4702,-4.477,-4.4844,-4.4901,-4.4972,-4.5051,-4.5157,-4.52,-4.5295,-4.5388,-4.5528,-4.5588,-4.5663,-4.5671,-4.5688,-4.5692,-4.5695,-4.5691,-4.5621,-4.5682,-4.5683,-4.5683,-4.5683,-4.5683,0,-4.4503,-4.4566,-4.4646,-4.4755,-4.4824,-4.4856,-4.4946,-4.5001,-4.5084,-4.5167,-4.5245,-4.5352,-4.5443,-4.5533,-4.5629,-4.5673,-4.5694,-4.5695,-4.5692,-4.5705,-4.5679,-4.5659,-4.5676,-4.5676,-4.5676,-4.5676,-4.5676,-4.5676,-4.4528,-4.4617,-4.4664,-4.4787,-4.4851,-4.4944,-4.4993,-4.506,-4.5127,-4.5244,-4.532,-4.5378,-4.5464,-4.5567,-4.5652,-4.5676,-4.5709,-4.5705,-4.5734,-4.5707,-4.5707,-4.5707,-4.5688,-4.5711,-4.5711,-4.5754,-4.5754,-4.5754]},{"header":{"parameterUnit":"m.s-1","parameterCategory":1,"la1":30.2991,"la2":30.254,"lo1":-89.0895,"lo2":-89.0444,"dy":0.0017,"dx":0.0017,"nx":28,"ny":28,"refTime":"2025-03-14T21:00:00:Z","depth":0,"parameterNumber":3,"parameterNumberName":"V-component_of_WINDS"},"data":[0,0,0,0,0,0,0,0,0,0,0,0,0,0,0,0,0,0,0,0,0,0,0,0,0,0,0,0,0,0,0,0,0,0,0,0,0,0,0,0,0,0,0,0,0,0,0,0,0,0,0,0,0,0,0,0,0,0,7.2681,7.2682,0,7.2824,7.2825,7.2827,7.2828,7.2826,7.2825,7.2823,7.296,7.2965,7.297,0,0,0,0,0,0,0,0,0,0,0,0,0,7.2402,7.2407,7.2681,7.2682,7.2684,7.2823,7.2825,7.2827,7.2829,7.2826,7.2824,7.2822,7.2958,7.2964,7.297,0,0,0,0,0,0,0,0,0,0,0,0,0,7.2532,7.2409,7.268,7.2702,7.2705,7.2823,7.2825,7.2828,7.2829,7.2826,7.2824,7.2821,7.2956,7.2964,7.2971,7.3074,0,0,7.2996,7.2999,0,0,0,0,0,0,0,0,7.2524,7.2542,7.2697,7.2701,7.2705,7.2806,7.2777,7.291,7.283,7.2782,7.2823,7.282,7.291,7.2921,7.2954,7.308,7.3086,7.2996,7.3001,7.3005,7.3007,0,0,0,0,0,0,0,7.2515,7.2536,7.2737,7.2699,7.2704,7.2702,7.2718,7.2802,7.2859,7.2786,7.2786,7.2804,7.2911,7.2946,7.2957,7.3088,7.2996,7.3003,7.3008,7.3011,7.331,7.3313,0,0,0,0,0,0,7.2503,7.2528,7.2732,7.2741,7.2606,7.2709,7.2727,7.2776,7.2858,7.2868,7.2806,7.2803,7.2934,7.2948,7.2962,7.309,7.3005,7.3012,7.3017,7.3307,7.331,7.3314,0,0,0,0,0,0,7.2497,7.2521,7.2727,7.2635,7.2661,7.2717,7.2772,7.278,7.2815,7.2873,7.2882,7.2831,7.2932,7.2951,7.3048,7.3095,7.3016,7.3023,7.3303,7.3308,7.3312,7.3345,0,0,0,0,0,0,7.2489,7.2519,7.256,7.2636,7.2666,7.2812,7.2775,7.2785,7.283,7.2828,7.29,7.2909,7.2932,7.3036,7.3056,7.3104,7.3029,7.3299,7.3305,7.3311,7.334,7.3351,7.3359,0,0,0,0,0,7.2479,7.2561,7.2562,7.2587,7.2719,7.2815,7.2832,7.2859,7.2833,7.2874,7.2913,7.2907,7.3086,7.3046,7.3068,7.3119,7.3296,7.3303,7.331,7.3336,7.3348,7.3359,0,0,0,0,0,0,7.2484,7.2571,7.2573,7.2683,7.2742,7.2815,7.2867,7.2871,7.2936,7.293,7.2959,7.2975,7.3072,7.3105,7.3058,7.3225,7.3188,7.32,7.32,7.3212,7.3222,7.3211,7.3036,0,0,0,0,0,7.2499,7.2572,7.2643,7.2732,7.2762,7.281,7.2852,7.2869,7.293,7.2954,7.2999,7.3056,7.3126,7.3171,7.3238,7.3345,7.3361,7.3392,7.3401,7.3409,7.3419,7.3481,7.3495,7.3337,7.3337,7.3337,0,0,7.2528,7.2585,7.2628,7.2735,7.2783,7.2857,7.2831,7.2909,7.2963,7.2965,7.3061,7.3096,7.3162,7.3265,7.3313,7.3296,7.3467,7.3418,7.3424,7.3429,7.3489,7.3504,7.3518,7.3342,7.3341,7.334,0,0,7.262,7.267,7.2752,7.2802,7.2876,7.2908,7.2928,7.3002,7.3026,7.3124,7.3128,7.3192,7.331,7.3358,7.3398,7.3513,7.351,7.3533,7.3583,7.3643,7.3655,7.3667,7.3709,7.3724,7.3543,7.3543,7.3543,0,7.2646,7.276,7.2792,7.2873,7.292,7.2929,7.3012,7.3057,7.3148,7.318,7.316,7.3313,7.3357,7.3473,7.3502,7.3533,7.3556,7.3525,7.3652,7.3663,7.3674,7.3715,7.373,7.3545,7.3545,7.3545,7.3545,0,7.2789,7.2868,7.2925,7.3019,7.3072,7.3152,7.3195,7.3245,7.3258,7.3291,7.3391,7.3446,7.3526,7.3554,7.3565,7.3673,7.3661,7.3646,7.3609,7.3691,7.373,7.3746,7.3549,7.3548,7.3547,7.3547,0,0,7.2885,7.2999,7.3019,7.3064,7.3148,7.3209,7.329,7.3373,7.3416,7.3478,7.3547,7.365,7.3639,7.3684,7.3701,7.3753,7.3843,7.3733,7.3735,7.3752,7.3967,7.3978,7.3996,7.3843,7.3846,7.3848,7.3962,0,7.2987,7.3136,7.3169,7.3296,7.3371,7.3383,7.3454,7.3513,7.3547,7.3613,7.3649,7.3723,7.3701,7.3729,7.3782,7.3821,7.3887,7.3813,7.3906,7.3909,7.389,7.4016,7.4027,7.4132,7.3977,7.398,7.3982,0,7.3125,7.3197,7.3334,7.3413,7.3445,7.3509,7.3589,7.3652,7.3719,7.3741,7.3794,7.3806,7.389,7.3851,7.3967,7.3916,7.3956,7.3981,7.3986,7.3996,7.395,7.4029,7.4166,7.4182,7.4006,7.4004,7.4002,0,7.3184,7.3314,7.3414,7.3451,7.3545,7.359,7.363,7.3696,7.3744,7.3813,7.3845,7.392,7.3962,7.402,7.4052,7.402,7.4167,7.4129,7.4186,7.4186,7.4216,7.4214,7.4362,7.4241,7.424,7.424,7.424,0,7.3294,7.3377,7.3442,7.3503,7.3597,7.3634,7.3725,7.3765,7.3823,7.3891,7.3904,7.3967,7.4006,7.4074,7.41,7.4193,7.4211,7.423,7.4236,7.423,7.4227,7.4256,7.425,7.4244,7.4243,7.4243,7.4242,0,7.3375,7.3422,7.3532,7.3614,7.3636,7.3702,7.3771,7.383,7.3866,7.3952,7.3974,7.4029,7.4111,7.415,7.4248,7.4266,7.4373,7.4373,7.4351,7.4354,7.4409,7.4404,7.4581,7.4606,7.4468,7.4469,7.447,0,7.3443,7.3508,7.3599,7.3648,7.3692,7.3769,7.382,7.3859,7.3911,7.3995,7.4044,7.4127,7.4196,7.4325,7.4372,7.4449,7.4452,7.4509,7.4463,7.4456,7.4454,7.445,7.4458,7.4516,7.4518,7.4519,7.452,0,7.3559,7.358,7.3655,7.374,7.3802,7.387,7.3935,7.3973,7.4023,7.4081,7.4167,7.422,7.4325,7.4407,7.4488,7.4527,7.4532,7.4534,7.4552,7.4546,7.4532,7.4542,7.4375,7.453,7.4529,7.4528,7.4527,7.4527,7.3636,7.3696,7.3771,7.3855,7.391,7.3973,7.4034,7.408,7.4153,7.4244,7.4262,7.4353,7.4421,7.4531,7.4573,7.4644,7.4631,7.4655,7.4662,7.4668,7.4672,7.4521,7.4659,7.4658,7.4658,7.4658,7.4658,0,7.3754,7.3805,7.3882,7.3977,7.4043,7.4046,7.412,7.4175,7.4257,7.4321,7.439,7.449,7.4571,7.4626,7.4708,7.4754,7.4759,7.4774,7.4771,7.4781,7.4678,7.4656,7.477,7.477,7.477,7.477,7.477,7.477,7.3824,7.3927,7.3957,7.4087,7.4136,7.4229,7.4271,7.4329,7.4381,7.4494,7.4563,7.46,7.4661,7.4748,7.4822,7.4836,7.4866,7.4883,7.4896,7.4799,7.4788,7.4776,7.4756,7.4889,7.4889,7.4993,7.4994,7.4995]}]]